Time,TemperatureF,DewpointF,PressureIn,WindDirection,WindDirectionDegrees,WindSpeedMPH,WindSpeedGustMPH,Humidity,HourlyPrecipIn,Conditions,Clouds,dailyrainin,SoftwareType,DateUTC
2013-11-19 00:01:00,44.6,31.5,29.75,West,270,20.9,20.9,59,-99.99,,,-99.99,tws,2013-11-19 05:01:00,
2013-11-19 00:02:00,44.7,31.6,29.75,West,270,22.4,22.4,59,-99.99,,,-99.99,tws,2013-11-19 05:02:00,
2013-11-19 00:04:00,44.5,31.6,29.75,NNW,337,16.6,16.6,60,-99.99,,,-99.99,tws,2013-11-19 05:04:00,
2013-11-19 00:06:00,44.5,31.7,29.75,West,270,13.8,13.8,60,-99.99,,,-99.99,tws,2013-11-19 05:06:00,
2013-11-19 00:08:00,44.4,31.5,29.75,SW,225,17.8,17.8,60,-99.99,,,-99.99,tws,2013-11-19 05:08:00,
2013-11-19 00:13:00,44.3,31.3,29.75,WNW,292,18.2,18.2,59,-99.99,,,-99.99,tws,2013-11-19 05:13:00,
2013-11-19 00:18:00,44.2,31.4,29.75,West,270,13.6,13.6,60,-99.99,,,-99.99,tws,2013-11-19 05:18:00,
2013-11-19 00:19:00,44.2,31.4,29.75,NNW,337,15.2,15.2,60,-99.99,,,-99.99,tws,2013-11-19 05:19:00,
2013-11-19 00:24:00,44.2,31.1,29.75,West,270,13.7,13.7,59,-99.99,,,-99.99,tws,2013-11-19 05:24:00,
2013-11-19 00:29:00,44.0,30.2,29.75,WSW,247,15.6,15.6,58,-99.99,,,-99.99,tws,2013-11-19 05:29:00,
2013-11-19 00:34:00,43.7,29.8,29.75,WNW,292,25.9,25.9,57,-99.99,,,-99.99,tws,2013-11-19 05:34:00,
2013-11-19 00:39:00,43.6,30.0,29.76,NW,315,23.2,23.2,58,-99.99,,,-99.99,tws,2013-11-19 05:39:00,
2013-11-19 00:44:00,43.4,28.6,29.76,West,270,28.7,28.7,55,-99.99,,,-99.99,tws,2013-11-19 05:44:00,
2013-11-19 00:49:00,43.2,28.2,29.76,NNW,337,19.2,19.2,55,-99.99,,,-99.99,tws,2013-11-19 05:49:00,
2013-11-19 00:54:00,43.3,27.8,29.77,West,270,24.0,24.0,54,-99.99,,,-99.99,tws,2013-11-19 05:54:00,
2013-11-19 00:59:00,43.0,27.5,29.77,WNW,292,12.8,12.8,53,-99.99,,,-99.99,tws,2013-11-19 05:59:00,
2013-11-19 01:04:00,42.9,27.3,29.77,West,270,15.5,15.5,53,-99.99,,,-99.99,tws,2013-11-19 06:04:00,
2013-11-19 01:09:00,42.7,26.8,29.77,NW,315,14.8,14.8,53,-99.99,,,-99.99,tws,2013-11-19 06:09:00,
2013-11-19 01:14:00,42.8,26.0,29.77,West,270,25.3,25.3,51,-99.99,,,-99.99,tws,2013-11-19 06:14:00,
2013-11-19 01:19:00,42.5,26.0,29.77,West,270,25.6,25.6,51,-99.99,,,-99.99,tws,2013-11-19 06:19:00,
2013-11-19 01:24:00,42.0,26.0,29.77,WNW,292,19.7,19.7,52,-99.99,,,-99.99,tws,2013-11-19 06:24:00,
2013-11-19 01:29:00,41.9,25.3,29.78,West,270,24.9,24.9,51,-99.99,,,-99.99,tws,2013-11-19 06:29:00,
2013-11-19 01:34:00,41.9,25.4,29.79,NW,315,28.6,28.6,51,-99.99,,,-99.99,tws,2013-11-19 06:34:00,
2013-11-19 01:39:00,41.8,25.0,29.80,NW,315,22.5,22.5,50,-99.99,,,-99.99,tws,2013-11-19 06:39:00,
2013-11-19 01:44:00,41.2,25.5,29.79,NW,315,15.8,15.8,53,-99.99,,,-99.99,tws,2013-11-19 06:44:00,
2013-11-19 01:49:00,41.4,25.4,29.80,NNW,337,7.2,7.2,52,-99.99,,,-99.99,tws,2013-11-19 06:49:00,
2013-11-19 01:54:00,41.0,25.3,29.80,NW,315,23.1,23.1,53,-99.99,,,-99.99,tws,2013-11-19 06:54:00,
2013-11-19 01:59:00,40.9,25.7,29.80,NNW,337,11.7,11.7,54,-99.99,,,-99.99,tws,2013-11-19 06:59:00,
2013-11-19 02:04:00,41.0,25.3,29.80,WNW,292,19.5,19.5,53,-99.99,,,-99.99,tws,2013-11-19 07:04:00,
2013-11-19 02:09:00,40.9,25.3,29.80,NNW,337,25.1,25.1,53,-99.99,,,-99.99,tws,2013-11-19 07:09:00,
2013-11-19 02:14:00,41.0,25.1,29.80,NNW,337,27.8,27.8,52,-99.99,,,-99.99,tws,2013-11-19 07:14:00,
2013-11-19 02:19:00,40.9,25.3,29.80,NW,315,16.9,16.9,53,-99.99,,,-99.99,tws,2013-11-19 07:19:00,
2013-11-19 02:24:00,40.8,25.4,29.80,WNW,292,15.8,15.8,54,-99.99,,,-99.99,tws,2013-11-19 07:24:00,
2013-11-19 02:29:00,40.5,25.7,29.80,West,270,14.6,14.6,55,-99.99,,,-99.99,tws,2013-11-19 07:29:00,
2013-11-19 02:34:00,40.6,25.8,29.81,West,270,12.3,12.3,55,-99.99,,,-99.99,tws,2013-11-19 07:34:00,
2013-11-19 02:39:00,40.6,25.6,29.82,West,270,12.7,12.7,54,-99.99,,,-99.99,tws,2013-11-19 07:39:00,
2013-11-19 02:44:00,40.3,25.8,29.82,West,270,19.3,19.3,55,-99.99,,,-99.99,tws,2013-11-19 07:44:00,
2013-11-19 02:49:00,40.2,25.6,29.82,WNW,292,29.9,29.9,55,-99.99,,,-99.99,tws,2013-11-19 07:49:00,
2013-11-19 02:54:00,40.2,25.6,29.82,WNW,292,22.0,22.0,55,-99.99,,,-99.99,tws,2013-11-19 07:54:00,
2013-11-19 02:59:00,40.0,25.3,29.82,West,270,31.0,31.0,55,-99.99,,,-99.99,tws,2013-11-19 07:59:00,
2013-11-19 03:04:00,39.8,25.6,29.83,West,270,13.9,13.9,56,-99.99,,,-99.99,tws,2013-11-19 08:04:00,
2013-11-19 03:09:00,39.8,25.4,29.83,WNW,292,21.2,21.2,55,-99.99,,,-99.99,tws,2013-11-19 08:09:00,
2013-11-19 03:14:00,39.6,25.2,29.82,West,270,20.1,20.1,56,-99.99,,,-99.99,tws,2013-11-19 08:14:00,
2013-11-19 03:19:00,39.3,24.9,29.82,West,270,11.9,11.9,55,-99.99,,,-99.99,tws,2013-11-19 08:19:00,
2013-11-19 03:24:00,39.3,24.5,29.82,West,270,14.2,14.2,54,-99.99,,,-99.99,tws,2013-11-19 08:24:00,
2013-11-19 03:29:00,39.2,24.4,29.83,WSW,247,13.3,13.3,54,-99.99,,,-99.99,tws,2013-11-19 08:29:00,
2013-11-19 03:34:00,39.2,24.8,29.83,WNW,292,0.0,0.0,55,-99.99,,,-99.99,tws,2013-11-19 08:34:00,
2013-11-19 03:39:00,39.8,25.2,29.83,WSW,247,0.0,0.0,55,-99.99,,,-99.99,tws,2013-11-19 08:39:00,
2013-11-19 03:44:00,39.7,25.7,29.84,NNW,337,0.0,0.0,57,-99.99,,,-99.99,tws,2013-11-19 08:44:00,
2013-11-19 03:49:00,39.1,25.5,29.84,WNW,292,0.0,0.0,57,-99.99,,,-99.99,tws,2013-11-19 08:49:00,
2013-11-19 03:54:00,39.6,25.6,29.84,NNE,22,0.0,0.0,57,-99.99,,,-99.99,tws,2013-11-19 08:54:00,
2013-11-19 03:59:00,40.6,26.4,29.85,North,0,0.0,0.0,56,-99.99,,,-99.99,tws,2013-11-19 08:59:00,
2013-11-19 04:04:00,40.5,26.3,29.85,NNE,22,0.0,0.0,56,-99.99,,,-99.99,tws,2013-11-19 09:04:00,
2013-11-19 04:09:00,40.5,25.5,29.85,NE,45,0.0,0.0,54,-99.99,,,-99.99,tws,2013-11-19 09:09:00,
2013-11-19 04:14:00,38.7,26.2,29.85,NNE,22,5.1,5.1,60,-99.99,,,-99.99,tws,2013-11-19 09:14:00,
2013-11-19 04:19:00,39.6,24.5,29.85,West,270,8.6,8.6,54,-99.99,,,-99.99,tws,2013-11-19 09:19:00,
2013-11-19 04:24:00,39.9,25.3,29.85,NW,315,3.7,3.7,55,-99.99,,,-99.99,tws,2013-11-19 09:24:00,
2013-11-19 04:29:00,39.5,24.8,29.86,West,270,12.2,12.2,55,-99.99,,,-99.99,tws,2013-11-19 09:29:00,
2013-11-19 04:34:00,39.7,25.3,29.86,NNW,337,6.6,6.6,56,-99.99,,,-99.99,tws,2013-11-19 09:34:00,
2013-11-19 04:39:00,39.6,24.7,29.86,West,270,25.5,25.5,54,-99.99,,,-99.99,tws,2013-11-19 09:39:00,
2013-11-19 04:44:00,39.7,24.8,29.86,NW,315,21.7,21.7,54,-99.99,,,-99.99,tws,2013-11-19 09:44:00,
2013-11-19 04:49:00,39.7,24.9,29.86,North,360,12.6,12.6,55,-99.99,,,-99.99,tws,2013-11-19 09:49:00,
2013-11-19 04:54:00,39.8,25.4,29.86,NE,45,5.8,5.8,56,-99.99,,,-99.99,tws,2013-11-19 09:54:00,
2013-11-19 04:59:00,39.9,25.4,29.87,NNW,337,6.1,6.1,55,-99.99,,,-99.99,tws,2013-11-19 09:59:00,
2013-11-19 05:04:00,39.7,25.5,29.87,NNW,337,1.9,1.9,56,-99.99,,,-99.99,tws,2013-11-19 10:04:00,
2013-11-19 05:09:00,39.5,25.2,29.87,WNW,292,11.8,11.8,56,-99.99,,,-99.99,tws,2013-11-19 10:09:00,
2013-11-19 05:14:00,39.6,25.5,29.88,WNW,292,22.3,22.3,56,-99.99,,,-99.99,tws,2013-11-19 10:14:00,
2013-11-19 05:19:00,39.6,25.7,29.88,NW,315,35.6,35.6,57,-99.99,,,-99.99,tws,2013-11-19 10:19:00,
2013-11-19 05:24:00,39.6,25.9,29.88,NW,315,18.6,18.6,57,-99.99,,,-99.99,tws,2013-11-19 10:24:00,
2013-11-19 05:29:00,39.7,25.8,29.89,West,270,28.7,28.7,57,-99.99,,,-99.99,tws,2013-11-19 10:29:00,
2013-11-19 05:34:00,39.5,26.1,29.89,NW,315,19.2,19.2,58,-99.99,,,-99.99,tws,2013-11-19 10:34:00,
2013-11-19 05:39:00,39.7,26.1,29.89,NNW,337,11.8,11.8,58,-99.99,,,-99.99,tws,2013-11-19 10:39:00,
2013-11-19 05:44:00,39.6,25.7,29.89,West,270,30.8,30.8,57,-99.99,,,-99.99,tws,2013-11-19 10:44:00,
2013-11-19 05:49:00,39.5,26.2,29.89,NNW,337,14.5,14.5,58,-99.99,,,-99.99,tws,2013-11-19 10:49:00,
2013-11-19 05:54:00,39.3,26.3,29.90,North,360,12.4,12.4,59,-99.99,,,-99.99,tws,2013-11-19 10:54:00,
2013-11-19 05:59:00,39.5,26.5,29.90,NW,315,10.5,10.5,59,-99.99,,,-99.99,tws,2013-11-19 10:59:00,
2013-11-19 06:04:00,39.3,26.6,29.90,West,270,15.6,15.6,60,-99.99,,,-99.99,tws,2013-11-19 11:04:00,
2013-11-19 06:09:00,39.5,26.5,29.91,NNW,337,25.0,25.0,59,-99.99,,,-99.99,tws,2013-11-19 11:09:00,
2013-11-19 06:14:00,39.5,26.6,29.91,NW,315,24.2,24.2,59,-99.99,,,-99.99,tws,2013-11-19 11:14:00,
2013-11-19 06:19:00,39.3,26.8,29.91,NNW,337,18.9,18.9,60,-99.99,,,-99.99,tws,2013-11-19 11:19:00,
2013-11-19 06:24:00,39.3,26.9,29.91,North,0,11.1,11.1,60,-99.99,,,-99.99,tws,2013-11-19 11:24:00,
2013-11-19 06:29:00,39.3,27.3,29.91,WNW,292,7.8,7.8,61,-99.99,,,-99.99,tws,2013-11-19 11:29:00,
2013-11-19 06:34:00,39.3,26.8,29.91,WNW,292,20.5,20.5,60,-99.99,,,-99.99,tws,2013-11-19 11:34:00,
2013-11-19 06:39:00,39.3,27.0,29.92,NNW,337,22.8,22.8,61,-99.99,,,-99.99,tws,2013-11-19 11:39:00,
2013-11-19 06:44:00,39.2,27.0,29.91,West,270,22.7,22.7,61,-99.99,,,-99.99,tws,2013-11-19 11:44:00,
2013-11-19 06:49:00,39.1,27.9,29.92,North,360,7.2,7.2,63,-99.99,,,-99.99,tws,2013-11-19 11:49:00,
2013-11-19 06:54:00,38.8,28.4,29.93,North,0,9.1,9.1,65,-99.99,,,-99.99,tws,2013-11-19 11:54:00,
2013-11-19 06:59:00,38.3,28.7,29.93,NNW,337,13.7,13.7,67,-99.99,,,-99.99,tws,2013-11-19 11:59:00,
2013-11-19 07:04:00,38.3,28.6,29.93,North,0,12.5,12.5,67,-99.99,,,-99.99,tws,2013-11-19 12:04:00,
2013-11-19 07:09:00,38.2,28.9,29.93,NNW,337,8.0,8.0,68,-99.99,,,-99.99,tws,2013-11-19 12:09:00,
2013-11-19 07:14:00,38.7,29.6,29.94,NNE,22,2.9,2.9,69,-99.99,,,-99.99,tws,2013-11-19 12:14:00,
2013-11-19 07:19:00,38.7,29.7,29.94,North,0,3.9,3.9,69,-99.99,,,-99.99,tws,2013-11-19 12:19:00,
2013-11-19 07:24:00,38.3,29.6,29.95,North,360,3.4,3.4,70,-99.99,,,-99.99,tws,2013-11-19 12:24:00,
2013-11-19 07:29:00,37.9,29.0,29.95,NNW,337,10.2,10.2,70,-99.99,,,-99.99,tws,2013-11-19 12:29:00,
2013-11-19 07:34:00,37.8,28.8,29.95,North,360,16.7,16.7,69,-99.99,,,-99.99,tws,2013-11-19 12:34:00,
2013-11-19 07:39:00,38.0,29.0,29.95,NW,315,3.1,3.1,69,-99.99,,,-99.99,tws,2013-11-19 12:39:00,
2013-11-19 07:44:00,38.9,29.4,29.95,NNE,22,6.6,6.6,68,-99.99,,,-99.99,tws,2013-11-19 12:44:00,
2013-11-19 07:49:00,39.6,29.8,29.95,NNE,22,2.4,2.4,67,-99.99,,,-99.99,tws,2013-11-19 12:49:00,
2013-11-19 07:54:00,39.7,29.7,29.96,ENE,67,9.2,9.2,67,-99.99,,,-99.99,tws,2013-11-19 12:54:00,
2013-11-19 07:59:00,39.3,29.1,29.96,NNE,22,9.4,9.4,66,-99.99,,,-99.99,tws,2013-11-19 12:59:00,
2013-11-19 08:04:00,38.7,28.6,29.96,North,0,13.5,13.5,66,-99.99,,,-99.99,tws,2013-11-19 13:04:00,
2013-11-19 08:09:00,39.5,29.5,29.97,NNE,22,8.8,8.8,67,-99.99,,,-99.99,tws,2013-11-19 13:09:00,
2013-11-19 08:14:00,39.0,28.9,29.97,North,360,5.9,5.9,66,-99.99,,,-99.99,tws,2013-11-19 13:14:00,
2013-11-19 08:19:00,38.9,28.8,29.97,North,360,12.3,12.3,66,-99.99,,,-99.99,tws,2013-11-19 13:19:00,
2013-11-19 08:24:00,39.1,28.9,29.97,North,360,13.4,13.4,66,-99.99,,,-99.99,tws,2013-11-19 13:24:00,
2013-11-19 08:29:00,38.8,28.3,29.98,NNW,337,17.0,17.0,65,-99.99,,,-99.99,tws,2013-11-19 13:29:00,
2013-11-19 08:34:00,39.1,28.8,29.98,NNW,337,7.5,7.5,66,-99.99,,,-99.99,tws,2013-11-19 13:34:00,
2013-11-19 08:39:00,39.0,28.4,29.98,NNW,337,13.9,13.9,65,-99.99,,,-99.99,tws,2013-11-19 13:39:00,
2013-11-19 08:44:00,38.9,27.8,29.98,NNW,337,15.9,15.9,64,-99.99,,,-99.99,tws,2013-11-19 13:44:00,
2013-11-19 08:49:00,39.0,27.9,29.98,NW,315,17.9,17.9,64,-99.99,,,-99.99,tws,2013-11-19 13:49:00,
2013-11-19 08:54:00,39.5,28.2,29.99,NNW,337,8.3,8.3,63,-99.99,,,-99.99,tws,2013-11-19 13:54:00,
2013-11-19 08:59:00,39.3,27.7,30.00,NW,315,13.5,13.5,62,-99.99,,,-99.99,tws,2013-11-19 13:59:00,
2013-11-19 09:04:00,39.8,27.8,30.00,NNE,22,10.3,10.3,61,-99.99,,,-99.99,tws,2013-11-19 14:04:00,
2013-11-19 09:09:00,39.3,27.5,29.99,North,360,15.8,15.8,62,-99.99,,,-99.99,tws,2013-11-19 14:09:00,
2013-11-19 09:14:00,39.5,27.2,29.99,North,0,21.7,21.7,61,-99.99,,,-99.99,tws,2013-11-19 14:14:00,
2013-11-19 09:19:00,39.5,27.1,30.00,North,360,23.2,23.2,61,-99.99,,,-99.99,tws,2013-11-19 14:19:00,
2013-11-19 09:24:00,39.1,26.7,30.00,WNW,292,22.4,22.4,60,-99.99,,,-99.99,tws,2013-11-19 14:24:00,
2013-11-19 09:29:00,40.1,27.8,30.00,NNW,337,9.8,9.8,61,-99.99,,,-99.99,tws,2013-11-19 14:29:00,
2013-11-19 09:33:00,39.8,27.7,30.00,NNW,337,19.3,19.3,61,-99.99,,,-99.99,tws,2013-11-19 14:33:00,
2013-11-19 09:38:00,39.8,27.4,30.00,North,0,8.5,8.5,60,-99.99,,,-99.99,tws,2013-11-19 14:38:00,
2013-11-19 09:43:00,39.6,27.2,30.00,NNE,22,20.6,20.6,60,-99.99,,,-99.99,tws,2013-11-19 14:43:00,
2013-11-19 09:48:00,41.2,28.6,30.01,NW,315,9.1,9.1,60,-99.99,,,-99.99,tws,2013-11-19 14:48:00,
2013-11-19 09:53:00,40.3,27.7,30.01,NW,315,15.8,15.8,60,-99.99,,,-99.99,tws,2013-11-19 14:53:00,
2013-11-19 09:58:00,39.8,27.2,30.02,NW,315,18.1,18.1,60,-99.99,,,-99.99,tws,2013-11-19 14:58:00,
2013-11-19 10:03:00,40.5,27.5,30.02,NNW,337,7.1,7.1,59,-99.99,,,-99.99,tws,2013-11-19 15:03:00,
2013-11-19 10:08:00,40.8,27.5,30.02,NW,315,18.3,18.3,58,-99.99,,,-99.99,tws,2013-11-19 15:08:00,
2013-11-19 10:13:00,42.3,28.2,30.02,NNE,22,8.5,8.5,57,-99.99,,,-99.99,tws,2013-11-19 15:13:00,
2013-11-19 10:18:00,42.5,29.3,30.02,NNW,337,10.3,10.3,59,-99.99,,,-99.99,tws,2013-11-19 15:18:00,
2013-11-19 10:23:00,40.6,27.7,30.02,NNW,337,13.5,13.5,59,-99.99,,,-99.99,tws,2013-11-19 15:23:00,
2013-11-19 10:28:00,40.5,27.3,30.02,WNW,292,14.7,14.7,59,-99.99,,,-99.99,tws,2013-11-19 15:28:00,
2013-11-19 10:33:00,40.9,27.6,30.02,WNW,292,14.4,14.4,58,-99.99,,,-99.99,tws,2013-11-19 15:33:00,
2013-11-19 10:38:00,42.4,28.2,30.02,NNW,337,7.1,7.1,57,-99.99,,,-99.99,tws,2013-11-19 15:38:00,
2013-11-19 10:43:00,41.7,27.9,30.03,North,360,12.8,12.8,57,-99.99,,,-99.99,tws,2013-11-19 15:43:00,
2013-11-19 10:48:00,41.8,28.2,30.03,NW,315,10.2,10.2,58,-99.99,,,-99.99,tws,2013-11-19 15:48:00,
2013-11-19 10:53:00,41.0,27.3,30.03,WNW,292,14.3,14.3,57,-99.99,,,-99.99,tws,2013-11-19 15:53:00,
2013-11-19 10:58:00,41.6,27.9,30.03,NE,45,6.9,6.9,57,-99.99,,,-99.99,tws,2013-11-19 15:58:00,
2013-11-19 11:03:00,40.9,27.4,30.04,North,360,15.7,15.7,58,-99.99,,,-99.99,tws,2013-11-19 16:03:00,
2013-11-19 11:08:00,40.9,26.8,30.04,NNW,337,20.4,20.4,56,-99.99,,,-99.99,tws,2013-11-19 16:08:00,
2013-11-19 11:13:00,41.4,27.0,30.04,North,0,14.4,14.4,56,-99.99,,,-99.99,tws,2013-11-19 16:13:00,
2013-11-19 11:18:00,40.7,26.8,30.04,NNE,22,18.0,18.0,57,-99.99,,,-99.99,tws,2013-11-19 16:18:00,
2013-11-19 11:23:00,40.5,27.0,30.05,North,360,11.1,11.1,58,-99.99,,,-99.99,tws,2013-11-19 16:23:00,
2013-11-19 11:28:00,39.8,26.4,30.05,West,270,31.7,31.7,58,-99.99,,,-99.99,tws,2013-11-19 16:28:00,
2013-11-19 11:33:00,39.8,26.2,30.05,WNW,292,28.7,28.7,58,-99.99,,,-99.99,tws,2013-11-19 16:33:00,
2013-11-19 11:38:00,39.2,25.8,30.05,WNW,292,27.6,27.6,58,-99.99,,,-99.99,tws,2013-11-19 16:38:00,
2013-11-19 11:43:00,39.6,26.1,30.06,NNW,337,19.0,19.0,58,-99.99,,,-99.99,tws,2013-11-19 16:43:00,
2013-11-19 11:48:00,40.5,26.4,30.06,WNW,292,26.9,26.9,57,-99.99,,,-99.99,tws,2013-11-19 16:48:00,
2013-11-19 11:53:00,39.9,26.1,30.05,NW,315,22.4,22.4,57,-99.99,,,-99.99,tws,2013-11-19 16:53:00,
2013-11-19 11:58:00,41.5,27.0,30.05,NE,45,17.0,17.0,56,-99.99,,,-99.99,tws,2013-11-19 16:58:00,
2013-11-19 12:03:00,39.7,25.2,30.05,NNW,337,25.5,25.5,55,-99.99,,,-99.99,tws,2013-11-19 17:03:00,
2013-11-19 12:08:00,40.7,25.5,30.05,WNW,292,31.8,31.8,54,-99.99,,,-99.99,tws,2013-11-19 17:08:00,
2013-11-19 12:13:00,41.7,25.7,30.06,West,270,20.8,20.8,52,-99.99,,,-99.99,tws,2013-11-19 17:13:00,
2013-11-19 12:18:00,43.0,27.6,30.05,NW,315,15.4,15.4,54,-99.99,,,-99.99,tws,2013-11-19 17:18:00,
2013-11-19 12:23:00,40.6,25.3,30.05,West,270,29.8,29.8,54,-99.99,,,-99.99,tws,2013-11-19 17:23:00,
2013-11-19 12:28:00,42.2,25.8,30.06,WNW,292,27.2,27.2,52,-99.99,,,-99.99,tws,2013-11-19 17:28:00,
2013-11-19 12:33:00,43.3,26.9,30.07,West,270,12.5,12.5,52,-99.99,,,-99.99,tws,2013-11-19 17:33:00,
2013-11-19 12:36:00,43.3,27.4,30.07,WSW,247,14.8,14.8,53,-99.99,,,-99.99,tws,2013-11-19 17:36:00,
2013-11-19 12:41:00,42.5,27.3,30.07,WNW,292,10.7,10.7,54,-99.99,,,-99.99,tws,2013-11-19 17:41:00,
2013-11-19 12:46:00,42.0,26.4,30.07,WNW,292,26.9,26.9,53,-99.99,,,-99.99,tws,2013-11-19 17:46:00,
2013-11-19 12:51:00,45.1,28.8,30.07,North,360,17.7,17.7,52,-99.99,,,-99.99,tws,2013-11-19 17:51:00,
2013-11-19 12:56:00,43.3,26.9,30.07,NW,315,17.5,17.5,52,-99.99,,,-99.99,tws,2013-11-19 17:56:00,
2013-11-19 13:01:00,42.8,26.2,30.07,NNW,337,18.5,18.5,51,-99.99,,,-99.99,tws,2013-11-19 18:01:00,
2013-11-19 13:06:00,42.4,26.0,30.07,NW,315,15.5,15.5,52,-99.99,,,-99.99,tws,2013-11-19 18:06:00,
2013-11-19 13:11:00,44.5,27.6,30.07,NW,315,12.2,12.2,51,-99.99,,,-99.99,tws,2013-11-19 18:11:00,
2013-11-19 13:16:00,43.0,27.1,30.07,NNE,22,18.2,18.2,52,-99.99,,,-99.99,tws,2013-11-19 18:16:00,
2013-11-19 13:21:00,43.6,26.8,30.07,NW,315,22.9,22.9,51,-99.99,,,-99.99,tws,2013-11-19 18:21:00,
2013-11-19 13:26:00,45.5,29.0,30.08,West,270,6.7,6.7,52,-99.99,,,-99.99,tws,2013-11-19 18:26:00,
2013-11-19 13:31:00,43.3,26.4,30.08,West,270,15.3,15.3,51,-99.99,,,-99.99,tws,2013-11-19 18:31:00,
2013-11-19 13:36:00,42.5,26.3,30.08,WNW,292,27.7,27.7,52,-99.99,,,-99.99,tws,2013-11-19 18:36:00,
2013-11-19 13:41:00,40.7,25.6,30.09,NW,315,17.8,17.8,54,-99.99,,,-99.99,tws,2013-11-19 18:41:00,
2013-11-19 13:46:00,41.6,26.0,30.08,WNW,292,30.1,30.1,53,-99.99,,,-99.99,tws,2013-11-19 18:46:00,
2013-11-19 13:51:00,40.9,25.9,30.08,West,270,23.4,23.4,54,-99.99,,,-99.99,tws,2013-11-19 18:51:00,
2013-11-19 13:56:00,41.7,26.3,30.09,WNW,292,22.5,22.5,54,-99.99,,,-99.99,tws,2013-11-19 18:56:00,
2013-11-19 14:01:00,43.5,27.4,30.08,NNW,337,20.2,20.2,52,-99.99,,,-99.99,tws,2013-11-19 19:01:00,
2013-11-19 14:06:00,42.5,27.1,30.09,WNW,292,13.0,13.0,54,-99.99,,,-99.99,tws,2013-11-19 19:06:00,
2013-11-19 14:11:00,42.9,26.7,30.09,NNW,337,24.8,24.8,52,-99.99,,,-99.99,tws,2013-11-19 19:11:00,
2013-11-19 14:15:00,43.8,27.4,30.09,NW,315,25.2,25.2,52,-99.99,,,-99.99,tws,2013-11-19 19:15:00,
2013-11-19 14:20:00,41.1,25.9,30.09,NNW,337,18.3,18.3,54,-99.99,,,-99.99,tws,2013-11-19 19:20:00,
2013-11-19 14:25:00,41.7,26.2,30.09,WNW,292,19.7,19.7,53,-99.99,,,-99.99,tws,2013-11-19 19:25:00,
2013-11-19 14:30:00,41.8,25.8,30.10,North,360,36.0,36.0,52,-99.99,,,-99.99,tws,2013-11-19 19:30:00,
2013-11-19 14:35:00,42.3,25.8,30.10,WNW,292,27.6,27.6,51,-99.99,,,-99.99,tws,2013-11-19 19:35:00,
2013-11-19 14:40:00,41.8,25.8,30.10,WNW,292,23.3,23.3,52,-99.99,,,-99.99,tws,2013-11-19 19:40:00,
2013-11-19 14:45:00,43.2,26.6,30.11,NW,315,17.6,17.6,51,-99.99,,,-99.99,tws,2013-11-19 19:45:00,
2013-11-19 14:50:00,41.9,26.2,30.11,NW,315,15.0,15.0,53,-99.99,,,-99.99,tws,2013-11-19 19:50:00,
2013-11-19 14:55:00,42.9,26.5,30.11,WNW,292,16.0,16.0,51,-99.99,,,-99.99,tws,2013-11-19 19:55:00,
2013-11-19 15:00:00,41.4,25.1,30.12,NW,315,17.6,17.6,52,-99.99,,,-99.99,tws,2013-11-19 20:00:00,
2013-11-19 15:05:00,41.1,25.1,30.12,NNW,337,22.1,22.1,52,-99.99,,,-99.99,tws,2013-11-19 20:05:00,
2013-11-19 15:10:00,40.2,24.4,30.12,NW,315,28.1,28.1,52,-99.99,,,-99.99,tws,2013-11-19 20:10:00,
2013-11-19 15:15:00,39.6,24.2,30.13,North,360,23.0,23.0,53,-99.99,,,-99.99,tws,2013-11-19 20:15:00,
2013-11-19 15:20:00,39.8,24.1,30.13,NNW,337,30.9,30.9,53,-99.99,,,-99.99,tws,2013-11-19 20:20:00,
2013-11-19 15:25:00,40.5,24.9,30.13,North,0,19.8,19.8,53,-99.99,,,-99.99,tws,2013-11-19 20:25:00,
2013-11-19 15:30:00,39.5,24.2,30.14,WNW,292,25.5,25.5,54,-99.99,,,-99.99,tws,2013-11-19 20:30:00,
2013-11-19 15:35:00,39.3,24.2,30.14,NW,315,27.5,27.5,54,-99.99,,,-99.99,tws,2013-11-19 20:35:00,
2013-11-19 15:40:00,39.7,24.6,30.14,SW,225,15.1,15.1,54,-99.99,,,-99.99,tws,2013-11-19 20:40:00,
2013-11-19 15:45:00,39.0,24.0,30.14,West,270,18.8,18.8,54,-99.99,,,-99.99,tws,2013-11-19 20:45:00,
2013-11-19 15:50:00,39.6,24.4,30.15,WNW,292,18.6,18.6,54,-99.99,,,-99.99,tws,2013-11-19 20:50:00,
2013-11-19 15:55:00,41.8,26.0,30.15,NNW,337,11.4,11.4,53,-99.99,,,-99.99,tws,2013-11-19 20:55:00,
2013-11-19 16:00:00,41.0,25.8,30.15,NNW,337,9.2,9.2,54,-99.99,,,-99.99,tws,2013-11-19 21:00:00,
2013-11-19 16:05:00,38.3,23.8,30.16,North,0,19.9,19.9,55,-99.99,,,-99.99,tws,2013-11-19 21:05:00,
2013-11-19 16:10:00,37.9,24.2,30.16,NNW,337,13.1,13.1,57,-99.99,,,-99.99,tws,2013-11-19 21:10:00,
2013-11-19 16:15:00,38.4,24.1,30.16,NNW,337,8.2,8.2,55,-99.99,,,-99.99,tws,2013-11-19 21:15:00,
2013-11-19 16:20:00,39.1,24.4,30.16,North,360,14.9,14.9,55,-99.99,,,-99.99,tws,2013-11-19 21:20:00,
2013-11-19 16:25:00,38.3,24.9,30.17,NNW,337,2.8,2.8,58,-99.99,,,-99.99,tws,2013-11-19 21:25:00,
2013-11-19 16:30:00,37.2,24.4,30.18,North,0,8.9,8.9,59,-99.99,,,-99.99,tws,2013-11-19 21:30:00,
2013-11-19 16:35:00,36.7,24.7,30.18,North,360,6.5,6.5,61,-99.99,,,-99.99,tws,2013-11-19 21:35:00,
2013-11-19 16:40:00,36.3,24.4,30.18,SE,135,3.8,3.8,61,-99.99,,,-99.99,tws,2013-11-19 21:40:00,
2013-11-19 16:45:00,36.2,23.9,30.18,NNE,22,7.0,7.0,60,-99.99,,,-99.99,tws,2013-11-19 21:45:00,
2013-11-19 16:50:00,36.0,24.3,30.18,North,360,5.2,5.2,62,-99.99,,,-99.99,tws,2013-11-19 21:50:00,
2013-11-19 16:55:00,35.8,24.3,30.19,NNE,22,5.1,5.1,62,-99.99,,,-99.99,tws,2013-11-19 21:55:00,
2013-11-19 17:00:00,35.7,24.2,30.19,North,0,6.3,6.3,62,-99.99,,,-99.99,tws,2013-11-19 22:00:00,
2013-11-19 17:05:00,36.0,24.8,30.20,NE,45,2.7,2.7,63,-99.99,,,-99.99,tws,2013-11-19 22:05:00,
2013-11-19 17:10:00,35.4,24.3,30.20,North,360,9.3,9.3,63,-99.99,,,-99.99,tws,2013-11-19 22:10:00,
2013-11-19 17:15:00,35.4,24.5,30.20,NNE,22,0.8,0.8,64,-99.99,,,-99.99,tws,2013-11-19 22:15:00,
2013-11-19 17:20:00,34.7,24.3,30.20,North,360,6.7,6.7,65,-99.99,,,-99.99,tws,2013-11-19 22:20:00,
2013-11-19 17:25:00,34.6,24.1,30.21,North,0,5.1,5.1,65,-99.99,,,-99.99,tws,2013-11-19 22:25:00,
2013-11-19 17:30:00,35.0,24.1,30.22,North,0,5.3,5.3,64,-99.99,,,-99.99,tws,2013-11-19 22:30:00,
2013-11-19 17:35:00,34.4,23.6,30.22,NNW,337,9.3,9.3,64,-99.99,,,-99.99,tws,2013-11-19 22:35:00,
2013-11-19 17:40:00,34.4,23.8,30.23,North,0,9.2,9.2,64,-99.99,,,-99.99,tws,2013-11-19 22:40:00,
2013-11-19 17:45:00,33.8,23.9,30.23,NNW,337,7.1,7.1,66,-99.99,,,-99.99,tws,2013-11-19 22:45:00,
2013-11-19 17:50:00,34.4,23.8,30.23,North,360,7.0,7.0,64,-99.99,,,-99.99,tws,2013-11-19 22:50:00,
2013-11-19 17:55:00,34.4,23.9,30.23,North,360,2.6,2.6,65,-99.99,,,-99.99,tws,2013-11-19 22:55:00,
2013-11-19 18:00:00,33.7,23.8,30.24,North,0,3.9,3.9,66,-99.99,,,-99.99,tws,2013-11-19 23:00:00,
2013-11-19 18:05:00,34.2,23.7,30.24,NNE,22,3.8,3.8,65,-99.99,,,-99.99,tws,2013-11-19 23:05:00,
2013-11-19 18:10:00,33.3,23.8,30.24,North,360,6.0,6.0,67,-99.99,,,-99.99,tws,2013-11-19 23:10:00,
2013-11-19 18:15:00,33.6,23.4,30.25,North,0,0.2,0.2,66,-99.99,,,-99.99,tws,2013-11-19 23:15:00,
2013-11-19 18:20:00,33.6,23.9,30.25,North,360,4.6,4.6,67,-99.99,,,-99.99,tws,2013-11-19 23:20:00,
2013-11-19 18:25:00,33.7,24.0,30.24,NNE,22,2.5,2.5,67,-99.99,,,-99.99,tws,2013-11-19 23:25:00,
2013-11-19 18:30:00,33.4,23.8,30.25,North,0,8.4,8.4,67,-99.99,,,-99.99,tws,2013-11-19 23:30:00,
2013-11-19 18:35:00,33.5,23.8,30.25,North,0,3.3,3.3,67,-99.99,,,-99.99,tws,2013-11-19 23:35:00,
2013-11-19 18:40:00,33.2,23.7,30.25,NNE,22,1.7,1.7,68,-99.99,,,-99.99,tws,2013-11-19 23:40:00,
2013-11-19 18:45:00,33.3,23.9,30.26,North,360,3.8,3.8,68,-99.99,,,-99.99,tws,2013-11-19 23:45:00,
2013-11-19 18:50:00,32.9,23.0,30.26,North,360,8.5,8.5,66,-99.99,,,-99.99,tws,2013-11-19 23:50:00,
2013-11-19 18:55:00,33.3,23.2,30.26,NNW,337,8.0,8.0,66,-99.99,,,-99.99,tws,2013-11-19 23:55:00,
2013-11-19 19:00:00,33.4,23.1,30.26,NNW,337,7.8,7.8,65,-99.99,,,-99.99,tws,2013-11-20 00:00:00,
2013-11-19 19:05:00,33.3,22.9,30.26,North,0,13.0,13.0,65,-99.99,,,-99.99,tws,2013-11-20 00:05:00,
2013-11-19 19:10:00,33.3,23.1,30.27,North,360,16.0,16.0,65,-99.99,,,-99.99,tws,2013-11-20 00:10:00,
2013-11-19 19:15:00,33.9,24.4,30.27,North,0,8.7,8.7,67,-99.99,,,-99.99,tws,2013-11-20 00:15:00,
2013-11-19 19:20:00,33.5,23.7,30.27,NNE,22,3.7,3.7,67,-99.99,,,-99.99,tws,2013-11-20 00:20:00,
2013-11-19 19:25:00,33.5,23.7,30.27,NNE,22,6.2,6.2,67,-99.99,,,-99.99,tws,2013-11-20 00:25:00,
2013-11-19 19:30:00,33.2,24.4,30.27,North,360,5.5,5.5,69,-99.99,,,-99.99,tws,2013-11-20 00:30:00,
2013-11-19 19:35:00,32.9,23.2,30.27,North,360,10.6,10.6,67,-99.99,,,-99.99,tws,2013-11-20 00:35:00,
2013-11-19 19:40:00,32.9,23.0,30.27,North,0,13.2,13.2,66,-99.99,,,-99.99,tws,2013-11-20 00:40:00,
2013-11-19 19:45:00,32.6,22.7,30.28,North,360,19.4,19.4,66,-99.99,,,-99.99,tws,2013-11-20 00:45:00,
2013-11-19 19:50:00,32.4,22.3,30.29,NNW,337,8.8,8.8,66,-99.99,,,-99.99,tws,2013-11-20 00:50:00,
2013-11-19 19:55:00,32.2,22.7,30.29,NNE,22,6.4,6.4,67,-99.99,,,-99.99,tws,2013-11-20 00:55:00,
2013-11-19 20:00:00,32.6,22.6,30.29,North,360,4.2,4.2,66,-99.99,,,-99.99,tws,2013-11-20 01:00:00,
2013-11-19 20:05:00,32.4,22.3,30.29,NW,315,8.7,8.7,66,-99.99,,,-99.99,tws,2013-11-20 01:05:00,
2013-11-19 20:10:00,32.2,22.6,30.29,North,0,9.3,9.3,67,-99.99,,,-99.99,tws,2013-11-20 01:10:00,
2013-11-19 20:15:00,32.1,22.1,30.29,NNE,22,6.6,6.6,66,-99.99,,,-99.99,tws,2013-11-20 01:15:00,
2013-11-19 20:20:00,32.2,22.3,30.29,NNE,22,10.2,10.2,66,-99.99,,,-99.99,tws,2013-11-20 01:20:00,
2013-11-19 20:25:00,32.1,22.1,30.30,North,0,12.6,12.6,66,-99.99,,,-99.99,tws,2013-11-20 01:25:00,
2013-11-19 20:30:00,32.4,22.1,30.30,North,360,9.4,9.4,65,-99.99,,,-99.99,tws,2013-11-20 01:30:00,
2013-11-19 20:35:00,32.2,21.9,30.30,NNW,337,15.9,15.9,65,-99.99,,,-99.99,tws,2013-11-20 01:35:00,
2013-11-19 20:40:00,31.9,22.0,30.31,NNW,337,14.2,14.2,66,-99.99,,,-99.99,tws,2013-11-20 01:40:00,
2013-11-19 20:45:00,32.1,21.7,30.31,North,0,18.6,18.6,65,-99.99,,,-99.99,tws,2013-11-20 01:45:00,
2013-11-19 20:50:00,31.9,21.9,30.32,NNW,337,12.2,12.2,66,-99.99,,,-99.99,tws,2013-11-20 01:50:00,
2013-11-19 20:55:00,32.0,21.8,30.32,North,0,15.0,15.0,65,-99.99,,,-99.99,tws,2013-11-20 01:55:00,
2013-11-19 21:00:00,31.9,22.0,30.32,North,0,10.0,10.0,66,-99.99,,,-99.99,tws,2013-11-20 02:00:00,
2013-11-19 21:05:00,31.7,21.9,30.32,North,360,12.0,12.0,66,-99.99,,,-99.99,tws,2013-11-20 02:05:00,
2013-11-19 21:10:00,31.8,22.0,30.32,NNW,337,7.8,7.8,66,-99.99,,,-99.99,tws,2013-11-20 02:10:00,
2013-11-19 21:15:00,31.5,22.0,30.32,NNW,337,9.3,9.3,67,-99.99,,,-99.99,tws,2013-11-20 02:15:00,
2013-11-19 21:20:00,31.6,22.1,30.32,North,0,10.6,10.6,67,-99.99,,,-99.99,tws,2013-11-20 02:20:00,
2013-11-19 21:25:00,31.5,22.3,30.33,North,360,8.2,8.2,68,-99.99,,,-99.99,tws,2013-11-20 02:25:00,
2013-11-19 21:30:00,31.1,21.9,30.32,NNW,337,5.9,5.9,68,-99.99,,,-99.99,tws,2013-11-20 02:30:00,
2013-11-19 21:35:00,31.0,22.1,30.33,NNE,22,4.6,4.6,69,-99.99,,,-99.99,tws,2013-11-20 02:35:00,
2013-11-19 21:40:00,30.8,22.2,30.33,NNW,337,5.2,5.2,70,-99.99,,,-99.99,tws,2013-11-20 02:40:00,
2013-11-19 21:45:00,30.8,22.3,30.32,East,90,5.3,5.3,70,-99.99,,,-99.99,tws,2013-11-20 02:45:00,
2013-11-19 21:50:00,30.7,22.1,30.32,North,360,6.3,6.3,70,-99.99,,,-99.99,tws,2013-11-20 02:50:00,
2013-11-19 21:55:00,30.3,21.9,30.32,North,0,6.8,6.8,70,-99.99,,,-99.99,tws,2013-11-20 02:55:00,
2013-11-19 22:00:00,30.5,21.8,30.33,NNE,22,7.3,7.3,70,-99.99,,,-99.99,tws,2013-11-20 03:00:00,
2013-11-19 22:05:00,30.3,21.9,30.33,NNE,22,4.3,4.3,70,-99.99,,,-99.99,tws,2013-11-20 03:05:00,
2013-11-19 22:10:00,30.2,22.0,30.33,NNE,22,4.3,4.3,71,-99.99,,,-99.99,tws,2013-11-20 03:10:00,
2013-11-19 22:15:00,29.8,21.7,30.34,NNE,22,8.0,8.0,71,-99.99,,,-99.99,tws,2013-11-20 03:15:00,
2013-11-19 22:20:00,29.7,21.6,30.34,NNE,22,9.5,9.5,71,-99.99,,,-99.99,tws,2013-11-20 03:20:00,
2013-11-19 22:25:00,29.7,21.7,30.34,NNE,22,10.9,10.9,72,-99.99,,,-99.99,tws,2013-11-20 03:25:00,
2013-11-19 22:30:00,29.3,21.4,30.34,NNE,22,11.8,11.8,72,-99.99,,,-99.99,tws,2013-11-20 03:30:00,
2013-11-19 22:35:00,29.7,21.6,30.34,NNE,22,10.0,10.0,71,-99.99,,,-99.99,tws,2013-11-20 03:35:00,
2013-11-19 22:40:00,29.4,21.4,30.34,NNE,22,10.1,10.1,71,-99.99,,,-99.99,tws,2013-11-20 03:40:00,
2013-11-19 22:45:00,29.5,21.5,30.34,NE,45,7.7,7.7,71,-99.99,,,-99.99,tws,2013-11-20 03:45:00,
2013-11-19 22:50:00,29.1,21.2,30.34,NE,45,9.2,9.2,72,-99.99,,,-99.99,tws,2013-11-20 03:50:00,
2013-11-19 22:55:00,29.3,21.3,30.35,NNE,22,10.0,10.0,71,-99.99,,,-99.99,tws,2013-11-20 03:55:00,
2013-11-19 23:00:00,29.2,21.3,30.36,ENE,67,4.4,4.4,72,-99.99,,,-99.99,tws,2013-11-20 04:00:00,
2013-11-19 23:05:00,29.3,21.2,30.36,NE,45,9.7,9.7,71,-99.99,,,-99.99,tws,2013-11-20 04:05:00,
2013-11-19 23:10:00,29.5,21.4,30.36,NNE,22,9.2,9.2,71,-99.99,,,-99.99,tws,2013-11-20 04:10:00,
2013-11-19 23:15:00,29.4,21.2,30.36,NNE,22,11.1,11.1,71,-99.99,,,-99.99,tws,2013-11-20 04:15:00,
2013-11-19 23:20:00,29.3,21.1,30.36,ENE,67,7.7,7.7,71,-99.99,,,-99.99,tws,2013-11-20 04:20:00,
2013-11-19 23:25:00,29.5,21.3,30.36,NNW,337,9.5,9.5,71,-99.99,,,-99.99,tws,2013-11-20 04:25:00,
2013-11-19 23:30:00,29.7,21.1,30.37,NNE,22,11.3,11.3,70,-99.99,,,-99.99,tws,2013-11-20 04:30:00,
2013-11-19 23:35:00,29.3,21.0,30.36,NNE,22,13.8,13.8,70,-99.99,,,-99.99,tws,2013-11-20 04:35:00,
2013-11-19 23:40:00,29.3,21.0,30.37,NNE,22,7.0,7.0,70,-99.99,,,-99.99,tws,2013-11-20 04:40:00,
2013-11-19 23:45:00,29.2,20.9,30.37,NNE,22,10.5,10.5,70,-99.99,,,-99.99,tws,2013-11-20 04:45:00,
2013-11-19 23:50:00,29.3,21.0,30.37,NE,45,6.3,6.3,70,-99.99,,,-99.99,tws,2013-11-20 04:50:00,
2013-11-19 23:55:00,29.2,20.7,30.37,North,0,13.3,13.3,70,-99.99,,,-99.99,tws,2013-11-20 04:55:00,